This is the latest recevied weather packets stored in our database for station/object W1TG-2. If no packets are shown the sender has not sent any weather packets the latest 1 day(s).
| Time | Temp. | Humidity | Pressure | Rain* | Wind** | Luminosity | Snow |
|---|---|---|---|---|---|---|---|
| 1778032444 | 20.56° C | 58% | 1008 hPa | 0 mm | 0.89 m/s, 196° | - | - |
| 1778032083 | 20.56° C | 59% | 1008.1 hPa | 0 mm | 0.89 m/s, 196° | - | - |
| 1778031723 | 20.56° C | 58% | 1008 hPa | 0 mm | 0.45 m/s, 196° | - | - |
| 1778031364 | 20.56° C | 58% | 1008.1 hPa | 0 mm | 0.45 m/s, 197° | - | - |
| 1778031004 | 20.56° C | 57% | 1008.2 hPa | 0 mm | 0.45 m/s, 196° | - | - |
| 1778030643 | 20.56° C | 57% | 1007.9 hPa | 0 mm | 0.45 m/s, 196° | - | - |
| 1778030284 | 21.11° C | 57% | 1007.7 hPa | 0 mm | 1.34 m/s, 196° | - | - |
| 1778029924 | 21.11° C | 56% | 1007.2 hPa | 0 mm | 2.24 m/s, 195° | - | - |
| 1778029563 | 21.11° C | 56% | 1007.2 hPa | 0 mm | 1.79 m/s, 197° | - | - |
| 1778029203 | 21.11° C | 56% | 1007.1 hPa | 0 mm | 2.24 m/s, 199° | - | - |
| 1778028844 | 21.11° C | 56% | 1006.9 hPa | 0 mm | 2.68 m/s, 201° | - | - |
| 1778028483 | 21.11° C | 56% | 1006.8 hPa | 0 mm | 2.68 m/s, 195° | - | - |
| 1778028123 | 21.11° C | 56% | 1006.5 hPa | 0 mm | 2.68 m/s, 193° | - | - |
| 1778027763 | 21.11° C | 55% | 1006.6 hPa | 0 mm | 3.13 m/s, 201° | - | - |
| 1778027404 | 21.11° C | 55% | 1006.4 hPa | 0 mm | 2.68 m/s, 196° | - | - |
| 1778027044 | 21.67° C | 55% | 1006.3 hPa | 0 mm | 2.24 m/s, 193° | - | - |
| 1778026683 | 21.67° C | 55% | 1006.1 hPa | 0 mm | 2.24 m/s, 196° | - | - |
| 1778026324 | 22.22° C | 54% | 1006 hPa | 0 mm | 2.68 m/s, 195° | - | - |
| 1778025964 | 22.22° C | 54% | 1005.9 hPa | 0 mm | 2.68 m/s, 195° | - | - |
| 1778025603 | 22.22° C | 54% | 1005.8 hPa | 0 mm | 2.68 m/s, 189° | - | - |
| 1778025243 | 22.22° C | 53% | 1005.6 hPa | 0 mm | 2.68 m/s, 190° | - | - |
| 1778024884 | 22.22° C | 54% | 1005.6 hPa | 0 mm | 3.13 m/s, 197° | - | - |
| 1778024524 | 22.78° C | 54% | 1005.4 hPa | 0 mm | 3.13 m/s, 196° | - | - |
| 1778024163 | 22.78° C | 53% | 1005.3 hPa | 0 mm | 3.13 m/s, 192° | - | - |
| 1778023803 | 22.78° C | 53% | 1005.4 hPa | 0 mm | 3.13 m/s, 193° | - | - |
* Rain latest hour (hover to see other rain measurements)
** Current wind speed in m/s (hover to see current wind gust speed)